Regional Weather Roundup
Issued by NWS

Home | Current Version | Previous Version | Text Only | Print | Product List | Glossary On
Versions: 1 2 3 4 5 6 7 8 9 10 11 12 13 14 15 16 17 18 19 20 21 22 23 24 25 26 27 28 29 30 31 32 33 34 35 36 37 38 39 40 41 42 43 44 45 46 47 48 49 50
000
ASUS43 KLMK 010910
RWRKY
KENTUCKY REGIONAL WEATHER ROUNDUP
NATIONAL WEATHER SERVICE LOUISVILLE KY
500 AM EDT MON SEP 01 2014

NOTE "FAIR" INDICATES FEW OR NO CLOUDS BELOW 12,000 FEET
WITH NO SIGNIFICANT WEATHER AND/OR OBSTRUCTIONS TO VISIBILITY.

KYZ001>023-026-027-061>063-070>075-011000-
WESTERN AND SOUTH CENTRAL KENTUCKY

CITY           SKY/WX    TMP DP  RH WIND       PRES   REMARKS
PADUCAH        CLOUDY    77  73  87 VRB7      29.97S
HENDERSON      CLEAR     73  70  88 SW9       29.97R
OWENSBORO      NOT AVBL
HOPKINSVILLE   CLEAR     73  73 100 S6        30.02F
BOWLING GREEN  PTCLDY    73  70  90 S6        30.05R
GLASGOW        PTCLDY    71  71 100 S3        30.06S
$$

KYZ024-025-028>034-038-045-046-053-011000-
NORTH CENTRAL KENTUCKY

CITY           SKY/WX    TMP DP  RH WIND       PRES   REMARKS
LOUISVILLE/SDF CLOUDY    75  72  90 S7        30.01S
LOUISVILLE/LOU CLOUDY    74  72  93 S5        30.02S
FORT KNOX      CLOUDY    73  73 100 S7        30.01S
$$

KYZ035>037-039>044-047>052-055>060-089>105-011000-
NORTHEAST KENTUCKY

CITY           SKY/WX    TMP DP  RH WIND       PRES   REMARKS
LEXINGTON      CLOUDY    75  71  87 SW7       30.06R
COVINGTON      CLOUDY    74  71  91 SW3       30.01S
FRANKFORT      CLOUDY    73  72  96 SW7       30.03R
$$

KYZ054-064>069-076>088-106>120-011000-
SOUTHEAST KENTUCKY

CITY           SKY/WX    TMP DP  RH WIND       PRES   REMARKS
JACKSON        CLOUDY    71  69  93 CALM      30.09S
LONDON         PTCLDY    71  67  87 S5        30.11R
SOMERSET       CLOUDY    70  70 100 S3        30.10R
MIDDLESBORO    CLOUDY    67  67 100 CALM      30.13S
MONTICELLO     SUNNY     69  68  97 CALM      30.11R
$$




USA.gov is the U.S. government's official web portal to all federal, state and local government web resources and services.